Fort Smith, AR

2:08 PM CST on January 20, 2017 (GMT -0600)
Fort Smith Regional

Weather History for KFSM - November, 2011

Change the Weather History Date:

Friday, November 25, 2011

  Actual Average Record
Temperature  
Mean Temperature 55 °F 47 °F  
Max Temperature 66 °F 58 °F 81 °F (1965)
Min Temperature 43 °F 37 °F 17 °F (1950)
Degree Days  
Heating Degree Days 10 18  
Month to date heating degree days 226 318  
Since 1 July heating degree days 337 472  
Growing Degree Days 5 (Base 50)    
Moisture  
Dew Point 45 °F    
Average Humidity 69    
Maximum Humidity 93    
Minimum Humidity 45    
Precipitation  
Precipitation 0.00 in 0.14 in 2.22 in (1952)
Month to date precipitation 6.80 3.73  
Year to date precipitation 42.73 41.46  
Sea Level Pressure  
Sea Level Pressure 30.05 in    
Wind  
Wind Speed 6 mph (East)    
Max Wind Speed 15 mph    
Max Gust Speed 20 mph    
Visibility 9 miles    
Events      
T = Trace of Precipitation, MM = Missing Value Source: NWS Daily Summary

Daily Weather History Graph

Daily Weather History Graph

Search for Another Location

Airport or City:

Trip Planner

Search our weather history database for the weather conditions in past years. The results will help you decide how hot, cold, wet, or windy it might be!

Date:

Astronomy

Nov. 25, 2011 Rise Set
Actual Time 7:02 AM CST 5:06 PM CST
Civil Twilight 6:34 AM CST 5:34 PM CST
Nautical Twilight 6:03 AM CST 6:05 PM CST
Astronomical Twilight 5:32 AM CST 6:35 PM CST
Moon 7:28 AM CST (11/25) 5:37 PM CST (11/25)
Length of Visible Light 10h 59m
Length of Day
10h 04m
New Moon, 0% of the Moon is Illuminated
Nov 25
New Moon
Dec 2
First Quarter
Dec 10
Full
Dec 17
Last Quarter
Dec 24
New

Hourly Weather History & Observations

Time (CST) Temp. Windchill Dew Point Humidity Pressure Visibility Wind Dir Wind Speed Gust Speed Precip Events Conditions
12:53 AM 46.4 °F 44.3 °F 42.8 °F 87% 30.18 in 9.0 mi ENE 4.6 mph - N/A   Clear
1:53 AM 44.6 °F 41.4 °F 42.8 °F 93% 30.16 in 8.0 mi East 5.8 mph - N/A   Clear
2:53 AM 45.0 °F 42.6 °F 42.1 °F 90% 30.16 in 7.0 mi ENE 4.6 mph - N/A   Clear
3:53 AM 44.1 °F - 42.1 °F 93% 30.16 in 6.0 mi Calm Calm - N/A   Clear
4:39 AM 44.6 °F - 41.0 °F 87% 30.15 in 7.0 mi Calm Calm - N/A   Mostly Cloudy
4:53 AM 45.0 °F 43.5 °F 42.1 °F 90% 30.15 in 6.0 mi ENE 3.5 mph - N/A   Mostly Cloudy
5:53 AM 44.1 °F 41.5 °F 42.1 °F 93% 30.15 in 6.0 mi ENE 4.6 mph - N/A   Scattered Clouds
6:53 AM 45.0 °F 43.5 °F 43.0 °F 93% 30.15 in 5.0 mi NE 3.5 mph - N/A   Clear
7:53 AM 46.0 °F 43.9 °F 44.1 °F 93% 30.15 in 4.0 mi ENE 4.6 mph - N/A   Clear
8:53 AM 51.1 °F - 46.9 °F 86% 30.14 in 7.0 mi ENE 6.9 mph - N/A   Clear
9:53 AM 55.4 °F - 50.0 °F 82% 30.12 in 10.0 mi ENE 6.9 mph - N/A   Clear
10:53 AM 61.0 °F - 48.9 °F 64% 30.10 in 10.0 mi South 6.9 mph - N/A   Clear
11:53 AM 64.9 °F - 46.0 °F 50% 30.06 in 10.0 mi SSW 11.5 mph 17.3 mph N/A   Clear
12:53 PM 64.9 °F - 44.1 °F 47% 30.02 in 10.0 mi South 10.4 mph - N/A   Clear
1:53 PM 66.0 °F - 45.0 °F 47% 29.99 in 10.0 mi South 8.1 mph 17.3 mph N/A   Clear
2:53 PM 64.4 °F - 44.6 °F 49% 29.97 in 10.0 mi South 11.5 mph - N/A   Clear
3:53 PM 63.0 °F - 45.0 °F 52% 29.96 in 10.0 mi SSE 8.1 mph - N/A   Clear
4:53 PM 61.0 °F - 46.9 °F 60% 29.95 in 10.0 mi SSE 6.9 mph - N/A   Clear
5:53 PM 60.1 °F - 46.0 °F 60% 29.95 in 10.0 mi ESE 4.6 mph - N/A   Clear
6:53 PM 57.9 °F - 46.9 °F 67% 29.96 in 10.0 mi East 3.5 mph - N/A   Clear
7:53 PM 57.9 °F - 46.9 °F 67% 29.96 in 10.0 mi East 4.6 mph - N/A   Overcast
8:53 PM 57.9 °F - 48.0 °F 70% 29.96 in 10.0 mi East 3.5 mph - N/A   Mostly Cloudy
9:53 PM 60.1 °F - 48.0 °F 64% 29.94 in 10.0 mi ESE 9.2 mph - N/A   Overcast
10:53 PM 57.9 °F - 48.0 °F 70% 29.92 in 10.0 mi East 5.8 mph - N/A   Mostly Cloudy
11:53 PM 57.2 °F - 48.2 °F 72% 29.91 in 10.0 mi NNE 6.9 mph - N/A   Mostly Cloudy